Weather History for Grand Rapids, MN

Change the Weather History Date:

Tuesday, November 5, 2013

  Actual Average Record
Temperature  
Mean Temperature 30 °F -  
Max Temperature 33 °F 40 °F 70 °F (1975)
Min Temperature 28 °F 23 °F -1 °F (1991)
Degree Days  
Heating Degree Days 34    
Moisture  
Dew Point 21 °F    
Average Humidity 67    
Maximum Humidity 80    
Minimum Humidity 56    
Precipitation  
Precipitation 0.00 in - - ()
Sea Level Pressure  
Sea Level Pressure 30.10 in    
Wind  
Wind Speed 6 mph (WSW)    
Max Wind Speed 12 mph    
Max Gust Speed -    
Visibility 10 miles    
Events      
Averages and records for this station are not official NWS values.
T = Trace of Precipitation, MM = Missing Value Source: NWS Daily Summary

Daily Weather History Graph

Daily Weather History Graph

Search for Another Location

Airport:

Trip Planner

Search our weather history database for the weather conditions in past years. The results will help you decide how hot, cold, wet, or windy it might be!

Date:

Astronomy

Nov. 05, 2013 Rise Set
Actual Time 7:03 AM CST 4:51 PM CST
Civil Twilight 6:31 AM CST 5:23 PM CST
Nautical Twilight 5:54 AM CST 5:59 PM CST
Astronomical Twilight 5:19 AM CST 6:35 PM CST
Moon 9:25 AM CST (11/5) 6:47 PM CST (11/5)
Length of Visible Light 10h 52m
Length of Day
9h 47m
Waxing Crescent, 7% of the Moon is Illuminated
Nov 5
Waxing Crescent
Nov 9
First Quarter
Nov 17
Full
Nov 25
Last Quarter
Dec 2
New

Hourly Weather History & Observations

Time (CST) Temp. Windchill Dew Point Humidity Pressure Visibility Wind Dir Wind Speed Gust Speed Precip Events Conditions
12:15 AM 30.2 °F 23.4 °F 24.8 °F 80% 30.04 in 10.0 mi SSW 6.9 mph - N/A   Clear
12:35 AM 30.2 °F 23.4 °F 24.8 °F 80% 30.04 in 10.0 mi SSW 6.9 mph - N/A   Clear
12:55 AM 30.2 °F 23.4 °F 24.8 °F 80% 30.05 in 10.0 mi SSW 6.9 mph - N/A   Clear
1:15 AM 30.2 °F 23.4 °F 24.8 °F 80% 30.05 in 10.0 mi SSW 6.9 mph - N/A   Clear
1:35 AM 30.2 °F 23.4 °F 24.8 °F 80% 30.05 in 10.0 mi SSW 6.9 mph - N/A   Clear
1:55 AM 32.0 °F 25.6 °F 24.8 °F 75% 30.06 in 10.0 mi SW 6.9 mph - N/A   Clear
2:15 AM 32.0 °F 25.6 °F 24.8 °F 75% 30.06 in 10.0 mi SW 6.9 mph - N/A   Clear
2:35 AM 32.0 °F 27.5 °F 23.0 °F 69% 30.06 in 10.0 mi SW 4.6 mph - N/A   Clear
2:55 AM 32.0 °F 27.5 °F 23.0 °F 69% 30.07 in 10.0 mi SW 4.6 mph - N/A   Clear
3:15 AM 30.2 °F 23.4 °F 24.8 °F 80% 30.07 in 10.0 mi WSW 6.9 mph - N/A   Clear
3:35 AM 30.2 °F 24.3 °F 23.0 °F 75% 30.07 in 10.0 mi WSW 5.8 mph - N/A   Clear
3:55 AM 30.2 °F 24.3 °F 23.0 °F 75% 30.08 in 10.0 mi WSW 5.8 mph - N/A   Clear
4:15 AM 30.2 °F 23.4 °F 23.0 °F 75% 30.08 in 10.0 mi WSW 6.9 mph - N/A   Clear
4:35 AM 30.2 °F 22.6 °F 21.2 °F 69% 30.09 in 10.0 mi WSW 8.1 mph - N/A   Clear
4:55 AM 30.2 °F 23.4 °F 21.2 °F 69% 30.10 in 10.0 mi WSW 6.9 mph - N/A   Clear
5:15 AM 28.4 °F 23.3 °F 21.2 °F 74% 30.10 in 10.0 mi WSW 4.6 mph - N/A   Clear
5:35 AM 28.4 °F 20.4 °F 19.4 °F 69% 30.11 in 10.0 mi WSW 8.1 mph - N/A   Clear
5:55 AM 28.4 °F 22.2 °F 19.4 °F 69% 30.10 in 10.0 mi SW 5.8 mph - N/A   Clear
6:15 AM 28.4 °F 20.4 °F 19.4 °F 69% 30.10 in 10.0 mi WSW 8.1 mph - N/A   Clear
6:35 AM 28.4 °F 21.2 °F 19.4 °F 69% 30.10 in 10.0 mi WSW 6.9 mph - N/A   Clear
6:55 AM 28.4 °F 22.2 °F 19.4 °F 69% 30.10 in 10.0 mi SW 5.8 mph - N/A   Clear
7:15 AM 28.4 °F 20.4 °F 19.4 °F 69% 30.11 in 10.0 mi WSW 8.1 mph - N/A   Clear
7:35 AM 28.4 °F 20.4 °F 19.4 °F 69% 30.11 in 10.0 mi WSW 8.1 mph - N/A   Clear
7:55 AM 30.2 °F 22.6 °F 19.4 °F 64% 30.11 in 10.0 mi WSW 8.1 mph - N/A   Clear
8:15 AM 30.2 °F 23.4 °F 19.4 °F 64% 30.12 in 10.0 mi West 6.9 mph - N/A   Clear
8:35 AM 30.2 °F 24.3 °F 19.4 °F 64% 30.12 in 10.0 mi WSW 5.8 mph - N/A   Partly Cloudy
8:55 AM 30.2 °F 24.3 °F 19.4 °F 64% 30.13 in 10.0 mi West 5.8 mph - N/A   Clear
9:15 AM 32.0 °F 23.0 °F 19.4 °F 60% 30.12 in 10.0 mi West 11.5 mph - N/A   Clear
9:35 AM 30.2 °F 21.3 °F 19.4 °F 64% 30.12 in 10.0 mi West 10.4 mph - N/A   Clear
9:55 AM 30.2 °F 22.6 °F 19.4 °F 64% 30.13 in 10.0 mi WNW 8.1 mph - N/A   Clear
10:15 AM 32.0 °F 25.6 °F 21.2 °F 64% 30.13 in 10.0 mi West 6.9 mph - N/A   Clear
10:35 AM 32.0 °F 24.2 °F 19.4 °F 60% 30.13 in 10.0 mi WNW 9.2 mph - N/A   Clear
10:55 AM 32.0 °F 26.4 °F 19.4 °F 60% 30.14 in 10.0 mi West 5.8 mph - N/A   Clear
11:15 AM 32.0 °F 25.6 °F 19.4 °F 60% 30.15 in 10.0 mi West 6.9 mph - N/A   Clear
11:35 AM 32.0 °F 25.6 °F 19.4 °F 60% 30.16 in 10.0 mi WSW 6.9 mph - N/A   Clear
11:55 AM 33.8 °F 27.0 °F 19.4 °F 56% 30.16 in 10.0 mi West 8.1 mph - N/A   Clear
12:15 PM 32.0 °F 24.8 °F 19.4 °F 60% 30.16 in 10.0 mi SW 8.1 mph - N/A   Clear
12:35 PM 32.0 °F 27.5 °F 19.4 °F 60% 30.16 in 10.0 mi SW 4.6 mph - N/A   Clear
12:55 PM 33.8 °F 28.6 °F 19.4 °F 56% 30.16 in 10.0 mi WSW 5.8 mph - N/A   Clear
1:15 PM 33.8 °F 27.7 °F 19.4 °F 56% 30.15 in 10.0 mi WSW 6.9 mph - N/A   Clear
1:35 PM 33.8 °F 27.0 °F 21.2 °F 60% 30.15 in 10.0 mi SSW 8.1 mph - N/A   Clear
1:55 PM 33.8 °F 28.6 °F 19.4 °F 56% 30.15 in 10.0 mi SSW 5.8 mph - N/A   Clear
2:15 PM 33.8 °F 27.7 °F 21.2 °F 60% 30.15 in 10.0 mi SSW 6.9 mph - N/A   Clear
2:35 PM 33.8 °F 28.6 °F 21.2 °F 60% 30.15 in 10.0 mi SW 5.8 mph - N/A   Clear
2:55 PM 33.8 °F 27.0 °F 21.2 °F 60% 30.14 in 10.0 mi SW 8.1 mph - N/A   Clear
3:15 PM 33.8 °F 29.6 °F 21.2 °F 60% 30.13 in 10.0 mi WSW 4.6 mph - N/A   Clear
3:35 PM 33.8 °F - 21.2 °F 60% 30.11 in 10.0 mi Calm Calm - N/A   Clear
3:55 PM 33.8 °F 30.8 °F 21.2 °F 60% 30.11 in 10.0 mi West 3.5 mph - N/A   Clear
4:15 PM 32.0 °F 25.6 °F 21.2 °F 64% 30.10 in 10.0 mi WNW 6.9 mph - N/A   Scattered Clouds
4:35 PM 32.0 °F - 21.2 °F 64% 30.10 in 10.0 mi Calm Calm - N/A   Overcast
4:55 PM 32.0 °F - 21.2 °F 64% 30.11 in 10.0 mi Calm Calm - N/A   Overcast
5:15 PM 32.0 °F - 21.2 °F 64% 30.11 in 10.0 mi Calm Calm - N/A   Overcast
5:35 PM 32.0 °F - 21.2 °F 64% 30.10 in 10.0 mi Calm Calm - N/A   Overcast
5:55 PM 30.2 °F - 21.2 °F 69% 30.10 in 10.0 mi Calm Calm - N/A   Overcast
6:15 PM 30.2 °F - 21.2 °F 69% 30.09 in 10.0 mi Calm Calm - N/A   Overcast
6:35 PM 30.2 °F 26.7 °F 21.2 °F 69% 30.09 in 10.0 mi WNW 3.5 mph - N/A   Overcast
6:55 PM 30.2 °F 25.4 °F 21.2 °F 69% 30.09 in 10.0 mi WNW 4.6 mph - N/A   Overcast
7:15 PM 30.2 °F 26.7 °F 21.2 °F 69% 30.09 in 10.0 mi West 3.5 mph - N/A   Overcast
7:35 PM 30.2 °F 25.4 °F 21.2 °F 69% 30.09 in 10.0 mi WNW 4.6 mph - N/A   Overcast
7:55 PM 30.2 °F 26.7 °F 21.2 °F 69% 30.09 in 10.0 mi West 3.5 mph - N/A   Overcast
8:15 PM 30.2 °F - 21.2 °F 69% 30.08 in 10.0 mi Calm Calm - N/A   Overcast
8:35 PM 30.2 °F 25.4 °F 21.2 °F 69% 30.08 in 10.0 mi WNW 4.6 mph - N/A   Overcast
8:55 PM 30.2 °F 25.4 °F 21.2 °F 69% 30.08 in 10.0 mi West 4.6 mph - N/A   Overcast
9:15 PM 30.2 °F 26.7 °F 21.2 °F 69% 30.07 in 10.0 mi NW 3.5 mph - N/A   Overcast
9:35 PM 30.2 °F 24.3 °F 21.2 °F 69% 30.07 in 10.0 mi NW 5.8 mph - N/A   Overcast
9:55 PM 30.2 °F 24.3 °F 21.2 °F 69% 30.07 in 10.0 mi WNW 5.8 mph - N/A   Overcast
10:15 PM 30.2 °F 22.6 °F 21.2 °F 69% 30.07 in 10.0 mi NW 8.1 mph - N/A   Overcast
10:35 PM 30.2 °F 22.6 °F 21.2 °F 69% 30.06 in 10.0 mi NNW 8.1 mph - N/A   Overcast
10:55 PM 30.2 °F 22.6 °F 21.2 °F 69% 30.06 in 10.0 mi NW 8.1 mph - N/A   Overcast
11:15 PM 30.2 °F 22.6 °F 21.2 °F 69% 30.05 in 10.0 mi NW 8.1 mph - N/A   Overcast
11:35 PM 30.2 °F 23.4 °F 21.2 °F 69% 30.05 in 10.0 mi NW 6.9 mph - N/A   Overcast
11:55 PM 30.2 °F 23.4 °F 21.2 °F 69% 30.04 in 10.0 mi NW 6.9 mph - N/A   Overcast